This demonstration page uses our WeatherBlox Daily Observations layout. Learn more.

Left ArrowRight Arrow

40.92945, -100.16068

Hourly Observations for October 25, 2016

Temp ( °F °C ) Dew Point ( °F °C ) Humidity (%) Winds ( mph kmh ) Pressure ( in mb ) Visibility ( mi km ) Precip ( " mm )
12:15 am 00:15 Clear 46 7.6 41 5 84 84 E 7 11 30.18 1022 10 16 N/A
12:35 am 00:35 Clear 45 7.3 41 5.1 86 86 E 6 9 30.18 1022 10 16 N/A
12:55 am 00:55 Clear 45 7.3 42 5.4 88 88 ESE 6 9 30.18 1022 10 16 N/A
1:15 am 01:15 Clear 46 7.6 42 5.4 86 86 ESE 7 11 30.15 1021 10 16 N/A
1:35 am 01:35 Clear 49 9.3 44 6.5 83 83 ESE 8 13 30.12 1020 10 16 N/A
1:55 am 01:55 Clear 49 9.6 44 6.5 81 81 SE 9 15 30.12 1020 10 16 N/A
2:15 am 02:15 Clear 48 9.1 44 6.5 84 84 ESE 7 11 30.12 1020 10 16 N/A
2:35 am 02:35 Clear 49 9.2 44 6.5 83 83 SE 6 9 30.12 1020 10 16 N/A
2:55 am 02:55 Clear 48 8.7 44 6.4 86 86 ESE 6 9 30.12 1020 10 16 N/A
3:15 am 03:15 Clear 46 7.8 42 5.8 87 87 ESE 5 7 30.09 1019 10 16 N/A
3:35 am 03:35 Clear 46 8 43 6.1 88 88 ESE 5 7 30.09 1019 10 16 N/A
3:55 am 03:55 Clear 46 8 43 6.1 88 88 ESE 3 6 30.09 1019 10 16 N/A
4:15 am 04:15 Clear 44 6.7 41 5.1 90 90 Calm 30.09 1019 10 16 N/A
4:35 am 04:35 Clear 44 6.5 41 5 90 90 E 5 7 30.09 1019 10 16 N/A
4:55 am 04:55 Clear 43 6.1 41 4.8 91 91 E 5 7 30.09 1019 10 16 N/A
5:15 am 05:15 Clear 43 6.2 41 5.1 93 93 ESE 7 11 30.09 1019 10 16 N/A
5:35 am 05:35 Clear 47 8.3 45 7.3 93 93 SE 7 11 30.06 1018 10 16 N/A
5:55 am 05:55 Clear 48 9 46 7.8 92 92 ESE 5 7 30.06 1018 10 16 N/A
6:15 am 06:15 Clear 44 6.9 42 5.6 92 92 ENE 5 7 30.09 1019 7 11 N/A
6:35 am 06:35 Clear 43 6 41 5 93 93 E 7 11 30.09 1019 7 11 N/A
6:55 am 06:55 Clear with Mist and Fog 43 6.1 41 5.2 94 94 E 6 9 30.09 1019 5 8 N/A
7:15 am 07:15 Clear 47 8.1 45 7.3 95 95 ESE 7 11 30.06 1018 7 11 N/A
7:35 am 07:35 Clear 46 8 45 7.2 95 95 ESE 6 9 30.06 1018 7 11 N/A
7:55 am 07:55 Mostly Cloudy 47 8.3 45 7.4 94 94 E 6 9 30.06 1018 7 11 N/A
8:15 am 08:15 Cloudy with Mist and Fog 48 9 47 8.1 94 94 ESE 6 9 30.06 1018 5 8 N/A
8:35 am 08:35 Cloudy with Mist and Fog 49 9.5 47 8.6 94 94 ESE 7 11 30.06 1018 5 8 N/A
8:55 am 08:55 Cloudy with Mist and Fog 50 10 48 9.1 94 94 ESE 7 11 30.06 1018 3 5 N/A
9:15 am 09:15 Cloudy with Mist and Fog 51 10.3 49 9.5 95 95 SE 7 11 30.03 1017 2 3 N/A
9:35 am 09:35 Cloudy with Fog 51 10.6 50 9.8 95 95 SE 8 13 30.03 1017 1 1 N/A
9:55 am 09:55 Cloudy with Fog 51 10.6 50 10 96 96 ESE 8 13 30.03 1017 1 1 N/A
10:15 am 10:15 Cloudy with Mist and Fog 52 11.1 51 10.4 96 96 ESE 8 13 30.00 1016 1 1 N/A
10:35 am 10:35 Cloudy with Fog 53 11.5 51 10.6 94 94 SE 9 15 30.00 1016 1 1 N/A
10:55 am 10:55 Cloudy with Mist and Fog 53 11.7 52 11 96 96 SE 8 13 30.00 1016 1 2 N/A
11:15 am 11:15 Cloudy with Mist and Fog 55 12.5 52 11.2 92 92 SE 7 11 30.00 1016 4 6 N/A
11:35 am 11:35 Cloudy with Mist and Fog 56 13.2 53 11.6 90 90 SE 6 9 29.97 1015 5 8 N/A
11:55 am 11:55 Cloudy 57 13.7 54 12 90 90 SE 6 9 29.97 1015 7 11 N/A
12:15 pm 12:15 Cloudy 58 14.5 54 12.1 86 86 ESE 3 6 29.97 1015 10 16 N/A
12:35 pm 12:35 Cloudy 59 15 54 12.3 84 84 SSE 3 6 29.97 1015 10 16 N/A
12:55 pm 12:55 Cloudy 59 15.1 54 12.3 83 83 SSE 3 6 29.94 1014 10 16 N/A
1:15 pm 13:15 Cloudy 60 15.6 54 12.3 81 81 SW 5 7 29.94 1014 10 16 N/A
1:35 pm 13:35 Cloudy 60 15.3 54 12.2 82 82 SW 5 7 29.94 1014 10 16 N/A
1:55 pm 13:55 Cloudy 60 15.6 54 12.3 81 81 SW 6 9 29.94 1014 10 16 N/A
2:15 pm 14:15 Cloudy 61 16.2 55 12.5 79 79 WSW 6 9 29.91 1013 10 16 N/A
2:35 pm 14:35 Cloudy 60 15.6 54 12.2 80 80 W 6 9 29.94 1014 10 16 N/A
2:55 pm 14:55 Partly Cloudy 62 16.8 55 12.5 76 76 W 8 13 29.88 1012 10 16 N/A
3:15 pm 15:15 Sunny 62 16.5 54 12.3 76 76 NW 6 9 29.88 1012 10 16 N/A
3:35 pm 15:35 Sunny 63 17.1 54 12.4 74 74 NW 7 11 29.88 1012 10 16 N/A
3:55 pm 15:55 Sunny 63 17.4 54 12.4 73 73 W 6 9 29.88 1012 10 16 N/A
4:15 pm 16:15 Sunny 63 17.3 55 12.5 74 74 WNW 8 13 29.88 1012 10 16 N/A
4:35 pm 16:35 Sunny 62 16.8 54 12.3 75 75 WNW 9 15 29.88 1012 10 16 N/A
4:55 pm 16:55 Sunny 61 16.3 54 12.2 77 77 NW 8 13 29.88 1012 7 11 N/A
5:15 pm 17:15 Sunny 61 16 54 12 77 77 NW 7 11 29.88 1012 10 16 N/A
5:35 pm 17:35 Sunny 60 15.7 53 11.8 78 78 WNW 9 15 29.91 1013 10 16 N/A
5:55 pm 17:55 Sunny 59 15.2 53 11.7 80 80 WNW 9 15 29.91 1013 10 16 N/A
6:15 pm 18:15 Sunny 59 14.8 53 11.5 81 81 WNW 9 15 29.91 1013 10 16 N/A
6:35 pm 18:35 Partly Cloudy 58 14.5 53 11.4 82 82 NW 7 11 29.91 1013 10 16 N/A
6:55 pm 18:55 Partly Cloudy 57 14.1 52 11.3 83 83 WSW 7 11 29.91 1013 10 16 N/A
7:15 pm 19:15 Clear 57 13.7 52 11.2 85 85 W 6 9 29.91 1013 10 16 N/A
7:35 pm 19:35 Clear 56 13.5 52 11.1 86 86 W 6 9 29.94 1014 10 16 N/A
7:55 pm 19:55 Partly Cloudy 56 13.5 52 11.2 86 86 WNW 8 13 29.94 1014 10 16 N/A
8:15 pm 20:15 Partly Cloudy 56 13.5 52 11.1 86 86 W 6 9 29.94 1014 10 16 N/A
8:35 pm 20:35 Partly Cloudy 56 13.2 52 11 87 87 WNW 3 6 29.94 1014 10 16 N/A
8:55 pm 20:55 Partly Cloudy 55 13 52 11 88 88 WNW 5 7 29.94 1014 10 16 N/A
9:15 pm 21:15 Clear 55 13 52 11 88 88 WNW 6 9 29.94 1014 10 16 N/A
9:35 pm 21:35 Clear 55 12.7 51 10.7 88 88 WNW 3 6 29.97 1015 10 16 N/A
9:55 pm 21:55 Clear 52 11.2 49 9.7 91 91 WNW 6 9 29.97 1015 7 11 N/A
10:15 pm 22:15 Clear 51 10.6 48 9 90 90 WNW 8 13 29.97 1015 7 11 N/A
10:35 pm 22:35 Clear 50 10.2 48 8.9 92 92 NW 6 9 30.00 1016 7 11 N/A
10:55 pm 22:55 Clear with Mist and Fog 48 9.1 46 7.9 92 92 WNW 7 11 30.03 1017 5 8 N/A
11:15 pm 23:15 Clear with Mist and Fog 48 9 46 8 94 94 WNW 6 9 30.00 1016 5 8 N/A
11:35 pm 23:35 Clear with Mist and Fog 48 9.1 47 8.1 94 94 W 6 9 30.00 1016 4 6 N/A
11:55 pm 23:55 Clear with Mist and Fog 47 8.3 45 7.4 94 94 WNW 8 13 30.03 1017 4 6 N/A

Powered by AerisWeather